VY2CRA-4 Weather Reports


time (UTC)temp
C
wind
direction
speed
KPH
gust
KPH
rain 1hr
cm
rain 24hr
cm
rain mn
cm
humidity
%
barometer
mb
20260505040638 11 270 0.0 0.0 0.00 0.00 0.00 48 1002.8
20260505034636 12 270 0.0 0.0 0.00 0.00 0.00 46 1002.4
20260505032636 12 270 0.0 0.0 0.00 0.00 0.00 44 1002.2
20260505030635 13 270 0.0 0.0 0.00 0.00 0.00 42 1001.9
20260505024634 14 270 0.0 0.0 0.00 0.00 0.00 40 1001.7
20260505022633 15 270 0.0 0.0 0.00 0.00 0.00 38 1001.5
20260505020632 15 270 0.0 0.0 0.00 0.00 0.00 36 1000.9
20260505014631 16 270 0.0 0.0 0.00 0.00 0.00 33 1000.8
20260505012630 18 270 0.0 0.0 0.00 0.00 0.00 28 1000.5
20260505010629 19 270 0.0 0.0 0.00 0.00 0.00 24 1000.3
20260505004628 22 270 0.0 0.0 0.00 0.00 0.00 19 1000.0
20260505002627 25 270 0.0 0.0 0.00 0.00 0.00 11 999.7
20260505000626 25 270 0.0 0.0 0.00 0.00 0.00 11 999.5
20260504234625 22 270 0.0 0.0 0.00 0.00 0.00 21 999.0
20260504232624 17 270 0.0 0.0 0.00 0.00 0.00 31 998.8
20260504230624 16 270 0.0 0.0 0.00 0.00 0.00 32 998.4
20260504222622 17 270 0.0 0.0 0.00 0.00 0.00 28 998.1
20260504220621 18 270 0.0 0.0 0.00 0.00 0.00 27 998.0
20260504214621 18 270 0.0 0.0 0.00 0.00 0.00 27 997.8
20260504212619 19 270 0.0 0.0 0.00 0.00 0.00 26 997.7
20260504210618 20 270 0.0 0.0 0.00 0.00 0.00 25 997.7
20260504204617 20 270 0.0 0.0 0.00 0.00 0.00 25 997.3
20260504202618 19 270 0.0 0.0 0.00 0.00 0.00 25 997.0
20260504200615 18 270 0.0 0.0 0.00 0.00 0.00 27 997.1
20260504194614 18 270 0.0 0.0 0.00 0.00 0.00 28 996.7
20260504192615 18 270 0.0 0.0 0.00 0.00 0.00 29 996.6
20260504190614 17 270 0.0 0.0 0.00 0.00 0.00 31 996.5
20260504184611 17 270 0.0 0.0 0.00 0.00 0.00 32 996.4
20260504182612 17 270 0.0 0.0 0.00 0.00 0.00 32 996.4
20260504180610 17 270 0.0 0.0 0.00 0.00 0.00 34 996.5
20260504174610 17 270 0.0 0.0 0.00 0.00 0.00 36 996.6
20260504172608 17 270 0.0 0.0 0.00 0.00 0.00 37 996.2
20260504170608 17 270 0.0 0.0 0.00 0.00 0.00 37 996.1
20260504150601 16 270 0.0 0.0 0.00 0.00 0.00 43 994.9
20260504140558 15 270 0.0 0.0 0.00 0.00 0.00 47 994.1
20260504130557 13 270 0.0 0.0 0.00 0.00 0.00 49 993.0
20260504110550 10 270 0.0 0.0 0.00 0.00 0.00 66 990.0
20260504100549 7 270 0.0 0.0 0.00 0.00 0.00 73 988.1
20260504080542 6 270 0.0 0.0 0.00 0.00 0.00 71 984.0
20260504050533 7 270 0.0 0.0 0.00 0.00 0.00 68 978.1
20260504044532 7 270 0.0 0.0 0.00 0.00 0.00 67 977.8
20260504042531 7 270 0.0 0.0 0.00 0.00 0.00 67 977.4